User: anonymous   Login
Location: Fort Wayne
(41.1310°N, 85.1290°W)
Time: 23:26:15
(UTC-04:00)
Language:

SL-08 RB Rocket - Orbit

View from above orbital plane
View from above orbital plane
View from above satellite
View from above satellite

Ground track
Ground track

The orbit data is extracted from the following two-line orbital elements,

1 26387U 00033D   16269.81201569  .00000152  00000-0  34637-4 0  9993
2 26387  98.0080 334.3407 0027918  97.0306  18.4180 14.68192645869088
Epoch (UTC): 25 September 2016 19:29:18
Eccentricity: 0.0027918
inclination: 98.0080°
perigee height: 647 km
apogee height: 686 km
right ascension of ascending node: 334.3407°
argument of perigee: 97.0306°
revolutions per day: 14.68192645
mean anomaly at epoch: 18.4180°
orbit number at epoch: 86908

The dashed part of the orbit path shows where the satellite is in the earth's shadow,  

DLR